Year,Month,Day,Hour,Minute,Value (Times are PST for temperature in C)
2019,09,29,00,00,7.40
2019,09,29,00,01,7.40
2019,09,29,00,02,7.30
2019,09,29,00,03,7.30
2019,09,29,00,04,7.30
2019,09,29,00,05,7.30
2019,09,29,00,06,7.20
2019,09,29,00,07,7.20
2019,09,29,00,08,7.20
2019,09,29,00,09,7.20
2019,09,29,00,10,7.20
2019,09,29,00,11,7.10
2019,09,29,00,12,7.10
2019,09,29,00,13,7.10
2019,09,29,00,14,7.10
2019,09,29,00,15,7.10
2019,09,29,00,16,7.20
2019,09,29,00,17,7.20
2019,09,29,00,18,7.20
2019,09,29,00,19,7.20
2019,09,29,00,20,7.20
2019,09,29,00,21,7.20
2019,09,29,00,22,7.20
2019,09,29,00,23,7.10
2019,09,29,00,24,7.10
2019,09,29,00,25,7.10
2019,09,29,00,26,7.00
2019,09,29,00,27,6.90
2019,09,29,00,28,6.90
2019,09,29,00,29,6.90
2019,09,29,00,30,6.90
2019,09,29,00,31,6.90
2019,09,29,00,32,6.90
2019,09,29,00,33,6.90
2019,09,29,00,34,6.90
2019,09,29,00,35,7.00
2019,09,29,00,36,7.00
2019,09,29,00,37,7.00
2019,09,29,00,38,7.10
2019,09,29,00,39,7.10
2019,09,29,00,40,7.10
2019,09,29,00,41,7.10
2019,09,29,00,42,7.10
2019,09,29,00,43,7.20
2019,09,29,00,44,7.20
2019,09,29,00,45,7.30
2019,09,29,00,46,7.40
2019,09,29,00,47,7.40
2019,09,29,00,48,7.50
2019,09,29,00,49,7.50
2019,09,29,00,50,7.60
2019,09,29,00,51,7.60
2019,09,29,00,52,7.60
2019,09,29,00,53,7.60
2019,09,29,00,54,7.60
2019,09,29,00,55,7.60
2019,09,29,00,56,7.60
2019,09,29,00,57,7.70
2019,09,29,00,58,7.70
2019,09,29,00,59,7.70
2019,09,29,01,00,7.80
2019,09,29,01,01,7.80
2019,09,29,01,02,7.80
2019,09,29,01,03,7.80
2019,09,29,01,04,7.90
2019,09,29,01,05,7.90
2019,09,29,01,06,7.90
2019,09,29,01,07,7.90
2019,09,29,01,08,7.90
2019,09,29,01,09,7.90
2019,09,29,01,10,7.90
2019,09,29,01,11,7.90
2019,09,29,01,12,7.90
2019,09,29,01,13,7.90
2019,09,29,01,14,7.90
2019,09,29,01,15,7.90
2019,09,29,01,16,7.90
2019,09,29,01,17,8.00
2019,09,29,01,18,8.00
2019,09,29,01,19,8.00
2019,09,29,01,20,8.10
2019,09,29,01,21,8.10
2019,09,29,01,22,8.10
2019,09,29,01,23,8.20
2019,09,29,01,24,8.20
2019,09,29,01,25,8.20
2019,09,29,01,26,8.20
2019,09,29,01,27,8.30
2019,09,29,01,28,8.30
2019,09,29,01,29,8.20
2019,09,29,01,30,8.20
2019,09,29,01,31,8.10
2019,09,29,01,32,8.10
2019,09,29,01,33,8.10
2019,09,29,01,34,8.10
2019,09,29,01,35,8.00
2019,09,29,01,36,7.90
2019,09,29,01,37,7.90
2019,09,29,01,38,7.90
2019,09,29,01,39,7.80
2019,09,29,01,40,7.80
2019,09,29,01,41,7.80
2019,09,29,01,42,7.80
2019,09,29,01,43,7.80
2019,09,29,01,44,7.80
2019,09,29,01,45,7.70
2019,09,29,01,46,7.70
2019,09,29,01,47,7.70
2019,09,29,01,48,7.80
2019,09,29,01,49,7.80
2019,09,29,01,50,7.80
2019,09,29,01,51,7.80
2019,09,29,01,52,7.80
2019,09,29,01,53,7.90
2019,09,29,01,54,7.90
2019,09,29,01,55,7.90
2019,09,29,01,56,7.90
2019,09,29,01,57,7.90
2019,09,29,01,58,7.80
2019,09,29,01,59,7.80
2019,09,29,02,00,7.80
2019,09,29,02,01,7.80
2019,09,29,02,02,7.80
2019,09,29,02,03,7.80
2019,09,29,02,04,7.70
2019,09,29,02,05,7.70
2019,09,29,02,06,7.60
2019,09,29,02,07,7.50
2019,09,29,02,08,7.50
2019,09,29,02,09,7.40
2019,09,29,02,10,7.40
2019,09,29,02,11,7.30
2019,09,29,02,12,7.30
2019,09,29,02,13,7.20
2019,09,29,02,14,7.20
2019,09,29,02,15,7.10
2019,09,29,02,16,7.10
2019,09,29,02,17,7.00
2019,09,29,02,18,6.90
2019,09,29,02,19,6.90
2019,09,29,02,20,6.90
2019,09,29,02,21,7.00
2019,09,29,02,22,7.00
2019,09,29,02,23,7.10
2019,09,29,02,24,7.10
2019,09,29,02,25,7.10
2019,09,29,02,26,7.10
2019,09,29,02,27,7.10
2019,09,29,02,28,7.10
2019,09,29,02,29,7.10
2019,09,29,02,30,7.20
2019,09,29,02,31,7.10
2019,09,29,02,32,7.20
2019,09,29,02,33,7.10
2019,09,29,02,34,7.20
2019,09,29,02,35,7.10
2019,09,29,02,36,7.10
2019,09,29,02,37,7.10
2019,09,29,02,38,7.00
2019,09,29,02,39,7.00
2019,09,29,02,40,6.90
2019,09,29,02,41,6.90
2019,09,29,02,42,6.90
2019,09,29,02,43,6.90
2019,09,29,02,44,6.80
2019,09,29,02,45,6.80
2019,09,29,02,46,6.80
2019,09,29,02,47,6.80
2019,09,29,02,48,6.70
2019,09,29,02,49,6.70
2019,09,29,02,50,6.60
2019,09,29,02,51,6.60
2019,09,29,02,52,6.50
2019,09,29,02,53,6.50
2019,09,29,02,54,6.40
2019,09,29,02,55,6.40
2019,09,29,02,56,6.30
2019,09,29,02,57,6.30
2019,09,29,02,58,6.40
2019,09,29,02,59,6.40
2019,09,29,03,00,6.50
2019,09,29,03,01,6.60
2019,09,29,03,02,6.60
2019,09,29,03,03,6.70
2019,09,29,03,04,6.80
2019,09,29,03,05,7.00
2019,09,29,03,06,7.10
2019,09,29,03,07,7.30
2019,09,29,03,08,7.40
2019,09,29,03,09,7.50
2019,09,29,03,10,7.60
2019,09,29,03,11,7.70
2019,09,29,03,12,7.80
2019,09,29,03,13,7.80
2019,09,29,03,14,7.90
2019,09,29,03,15,8.10
2019,09,29,03,16,8.20
2019,09,29,03,17,8.40
2019,09,29,03,18,8.50
2019,09,29,03,19,8.60
2019,09,29,03,20,8.60
2019,09,29,03,21,8.70
2019,09,29,03,22,8.70
2019,09,29,03,23,8.70
2019,09,29,03,24,8.70
2019,09,29,03,25,8.80
2019,09,29,03,26,8.80
2019,09,29,03,27,8.90
2019,09,29,03,28,9.00
2019,09,29,03,29,9.00
2019,09,29,03,30,9.10
2019,09,29,03,31,9.10
2019,09,29,03,32,9.10
2019,09,29,03,33,9.10
2019,09,29,03,34,9.10
2019,09,29,03,35,9.10
2019,09,29,03,36,9.10
2019,09,29,03,37,9.00
2019,09,29,03,38,8.90
2019,09,29,03,39,8.90
2019,09,29,03,40,8.80
2019,09,29,03,41,8.70
2019,09,29,03,42,8.60
2019,09,29,03,43,8.50
2019,09,29,03,44,8.40
2019,09,29,03,45,8.30
2019,09,29,03,46,8.20
2019,09,29,03,47,8.20
2019,09,29,03,48,8.20
2019,09,29,03,49,8.20
2019,09,29,03,50,8.20
2019,09,29,03,51,8.20
2019,09,29,03,52,8.20
2019,09,29,03,53,8.20
2019,09,29,03,54,8.20
2019,09,29,03,55,8.20
2019,09,29,03,56,8.20
2019,09,29,04,47,7.00
2019,09,29,04,48,7.00
2019,09,29,04,49,7.00
2019,09,29,04,50,7.00
2019,09,29,04,51,7.00
2019,09,29,04,52,7.00
2019,09,29,04,53,7.00
2019,09,29,04,54,7.10
2019,09,29,04,55,7.10
2019,09,29,04,56,7.20
2019,09,29,04,57,7.20
2019,09,29,04,58,7.20
2019,09,29,04,59,7.10
2019,09,29,05,00,7.10
2019,09,29,05,01,7.10
2019,09,29,05,02,7.20
2019,09,29,05,03,7.10
2019,09,29,05,04,7.10
2019,09,29,05,05,7.10
2019,09,29,05,06,7.10
2019,09,29,05,07,7.10
2019,09,29,05,08,7.10
2019,09,29,05,09,7.10
2019,09,29,05,10,7.10
2019,09,29,05,11,7.00
2019,09,29,05,12,7.00
2019,09,29,05,13,7.00
2019,09,29,05,14,6.90
2019,09,29,05,15,6.90
2019,09,29,05,16,6.90
2019,09,29,05,17,6.90
2019,09,29,05,18,6.90
2019,09,29,05,19,7.00
2019,09,29,05,20,7.00
2019,09,29,05,21,7.00
2019,09,29,05,22,7.10
2019,09,29,05,23,7.00
2019,09,29,05,24,7.00
2019,09,29,05,25,6.90
2019,09,29,05,26,6.90
2019,09,29,05,27,6.90
2019,09,29,05,28,6.90
2019,09,29,05,29,6.80
2019,09,29,05,30,6.80
2019,09,29,05,31,6.80
2019,09,29,05,32,6.80
2019,09,29,05,33,6.80
2019,09,29,05,34,6.90
2019,09,29,05,35,6.90
2019,09,29,05,36,6.80
2019,09,29,05,37,6.80
2019,09,29,05,38,6.80
2019,09,29,05,39,6.80
2019,09,29,05,40,6.80
2019,09,29,05,41,6.80
2019,09,29,05,42,6.80
2019,09,29,05,43,6.80
2019,09,29,05,44,6.80
2019,09,29,05,45,6.80
2019,09,29,05,46,6.80
2019,09,29,05,47,6.80
2019,09,29,05,48,6.80
2019,09,29,05,49,6.70
2019,09,29,05,50,6.70
2019,09,29,05,51,6.60
2019,09,29,05,52,6.60
2019,09,29,05,53,6.50
2019,09,29,05,54,6.50
2019,09,29,05,55,6.40
2019,09,29,05,56,6.40
2019,09,29,05,57,6.30
2019,09,29,05,58,6.30
2019,09,29,05,59,6.30
2019,09,29,06,00,6.30
2019,09,29,06,01,6.30
2019,09,29,06,02,6.30
2019,09,29,06,03,6.30
2019,09,29,06,04,6.30
2019,09,29,06,05,6.30
2019,09,29,06,06,6.30
2019,09,29,06,07,6.30
2019,09,29,06,08,6.30
2019,09,29,06,09,6.40
2019,09,29,06,10,6.40
2019,09,29,06,11,6.40
2019,09,29,06,12,6.40
2019,09,29,06,13,6.40
2019,09,29,06,14,6.40
2019,09,29,06,15,6.40
2019,09,29,06,16,6.40
2019,09,29,06,17,6.40
2019,09,29,06,18,6.40
2019,09,29,06,19,6.40
2019,09,29,06,20,6.40
2019,09,29,06,21,6.30
2019,09,29,06,22,6.30
2019,09,29,06,23,6.30
2019,09,29,06,24,6.30
2019,09,29,06,25,6.30
2019,09,29,06,26,6.30
2019,09,29,06,27,6.20
2019,09,29,06,28,6.20
2019,09,29,06,29,6.10
2019,09,29,06,30,6.10
2019,09,29,06,31,6.10
2019,09,29,06,32,6.10
2019,09,29,06,33,6.20
2019,09,29,06,34,6.20
2019,09,29,06,35,6.20
2019,09,29,06,36,6.20
2019,09,29,06,37,6.30
2019,09,29,06,38,6.30
2019,09,29,06,39,6.30
2019,09,29,06,40,6.30
2019,09,29,06,41,6.30
2019,09,29,06,42,6.30
2019,09,29,06,43,6.20
2019,09,29,06,44,6.20
2019,09,29,06,45,6.20
2019,09,29,06,46,6.20
2019,09,29,06,47,6.20
2019,09,29,06,48,6.20
2019,09,29,06,49,6.20
2019,09,29,06,50,6.20
2019,09,29,06,51,6.20
2019,09,29,06,52,6.20
2019,09,29,06,53,6.20
2019,09,29,06,54,6.30
2019,09,29,06,55,6.30
2019,09,29,06,56,6.30
2019,09,29,06,57,6.30
2019,09,29,06,58,6.30
2019,09,29,06,59,6.30
2019,09,29,07,00,6.30
2019,09,29,07,01,6.30
2019,09,29,07,02,6.30
2019,09,29,07,03,6.30
2019,09,29,07,04,6.30
2019,09,29,07,05,6.20
2019,09,29,07,06,6.20
2019,09,29,07,07,6.20
2019,09,29,07,08,6.20
2019,09,29,07,09,6.20
2019,09,29,07,10,6.20
2019,09,29,07,11,6.20
2019,09,29,07,12,6.30
2019,09,29,07,13,6.30
2019,09,29,07,14,6.30
2019,09,29,07,15,6.40
2019,09,29,07,16,6.40
2019,09,29,07,17,6.40
2019,09,29,07,18,6.40
2019,09,29,07,19,6.40
2019,09,29,07,20,6.40
2019,09,29,07,21,6.40
2019,09,29,07,22,6.40
2019,09,29,07,23,6.40
2019,09,29,07,24,6.40
2019,09,29,07,25,6.40
2019,09,29,07,26,6.40
2019,09,29,07,27,6.40
2019,09,29,07,28,6.40
2019,09,29,07,29,6.40
2019,09,29,07,30,6.40
2019,09,29,07,31,6.40
2019,09,29,07,32,6.40
2019,09,29,07,33,6.50
2019,09,29,07,34,6.50
2019,09,29,07,35,6.50
2019,09,29,07,36,6.60
2019,09,29,07,37,6.60
2019,09,29,07,38,6.60
2019,09,29,07,39,6.60
2019,09,29,07,40,6.60
2019,09,29,07,41,6.60
2019,09,29,07,42,6.60
2019,09,29,07,43,6.60
2019,09,29,07,44,6.60
2019,09,29,07,45,6.60
2019,09,29,07,46,6.50
2019,09,29,07,47,6.50
2019,09,29,07,48,6.50
2019,09,29,07,49,6.60
2019,09,29,07,50,6.60
2019,09,29,07,51,6.60
2019,09,29,07,52,6.60
2019,09,29,07,53,6.60
2019,09,29,07,54,6.50
2019,09,29,07,55,6.50
2019,09,29,07,56,6.40
2019,09,29,07,57,6.40
2019,09,29,07,58,6.30
2019,09,29,07,59,6.30
2019,09,29,08,00,6.30
2019,09,29,08,01,6.30
2019,09,29,08,02,6.30
2019,09,29,08,03,6.40
2019,09,29,08,04,6.40
2019,09,29,08,05,6.40
2019,09,29,08,06,6.50
2019,09,29,08,07,6.50
2019,09,29,08,08,6.60
2019,09,29,08,09,6.60
2019,09,29,08,10,6.60
2019,09,29,08,11,6.70
2019,09,29,08,12,6.70
2019,09,29,08,13,6.80
2019,09,29,08,14,6.80
2019,09,29,08,15,6.90
2019,09,29,08,16,6.90
2019,09,29,08,17,7.00
2019,09,29,08,18,7.10
2019,09,29,08,19,7.10
2019,09,29,08,20,7.10
2019,09,29,08,21,7.20
2019,09,29,08,22,7.20
2019,09,29,08,23,7.30
2019,09,29,08,24,7.30
2019,09,29,08,25,7.40
2019,09,29,08,26,7.40
2019,09,29,08,27,7.50
2019,09,29,08,28,7.50
2019,09,29,08,29,7.60
2019,09,29,08,30,7.60
2019,09,29,08,31,7.70
2019,09,29,08,32,7.70
2019,09,29,08,33,7.70
2019,09,29,08,34,7.80
2019,09,29,08,35,7.80
2019,09,29,08,36,7.80
2019,09,29,08,37,7.80
2019,09,29,08,38,7.90
2019,09,29,08,39,7.90
2019,09,29,08,40,8.00
2019,09,29,08,41,8.10
2019,09,29,08,42,8.10
2019,09,29,08,43,8.20
2019,09,29,08,44,8.20
2019,09,29,08,45,8.30
2019,09,29,08,46,8.30
2019,09,29,08,47,8.40
2019,09,29,08,48,8.50
2019,09,29,08,49,8.50
2019,09,29,08,50,8.60
2019,09,29,08,51,8.70
2019,09,29,08,52,8.70
2019,09,29,08,53,8.80
2019,09,29,08,54,8.80
2019,09,29,08,55,8.90
2019,09,29,08,56,9.00
2019,09,29,08,57,9.00
2019,09,29,08,58,9.10
2019,09,29,08,59,9.20
2019,09,29,09,00,9.30
2019,09,29,09,01,9.30
2019,09,29,09,02,9.40
2019,09,29,09,03,9.50
2019,09,29,09,04,9.50
2019,09,29,09,05,9.60
2019,09,29,09,06,9.60
2019,09,29,09,07,9.60
2019,09,29,09,08,9.70
2019,09,29,09,09,9.70
2019,09,29,09,10,9.70
2019,09,29,09,11,9.80
2019,09,29,09,12,9.80
2019,09,29,09,13,9.80
2019,09,29,09,14,9.80
2019,09,29,09,15,9.90
2019,09,29,09,16,9.90
2019,09,29,09,17,9.90
2019,09,29,09,18,9.90
2019,09,29,09,19,10.00
2019,09,29,09,20,10.00
2019,09,29,09,21,10.00
2019,09,29,09,22,10.00
2019,09,29,09,23,10.10
2019,09,29,09,24,10.10
2019,09,29,09,25,10.20
2019,09,29,09,26,10.20
2019,09,29,09,27,10.20
2019,09,29,09,28,10.30
2019,09,29,09,29,10.30
2019,09,29,09,30,10.40
2019,09,29,09,31,10.50
2019,09,29,09,32,10.50
2019,09,29,09,33,10.60
2019,09,29,09,34,10.60
2019,09,29,09,35,10.70
2019,09,29,09,36,10.70
2019,09,29,09,37,10.80
2019,09,29,09,38,10.80
2019,09,29,09,39,10.90
2019,09,29,09,40,10.90
2019,09,29,09,41,11.00
2019,09,29,09,42,11.00
2019,09,29,09,43,11.00
2019,09,29,09,44,11.10
2019,09,29,09,45,11.10
2019,09,29,09,46,11.20
2019,09,29,09,47,11.20
2019,09,29,09,48,11.20
2019,09,29,09,49,11.30
2019,09,29,09,50,11.30
2019,09,29,09,51,11.30
2019,09,29,09,52,11.30
2019,09,29,09,53,11.30
2019,09,29,09,54,11.40
2019,09,29,09,55,11.40
2019,09,29,09,56,11.40
2019,09,29,09,57,11.40
2019,09,29,09,58,11.50
2019,09,29,09,59,11.50
2019,09,29,10,00,11.60
2019,09,29,10,01,11.60
2019,09,29,10,02,11.60
2019,09,29,10,03,11.60
2019,09,29,10,04,11.60
2019,09,29,10,05,11.70
2019,09,29,10,06,11.70
2019,09,29,10,07,11.70
2019,09,29,10,08,11.70
2019,09,29,10,09,11.70
2019,09,29,10,10,11.80
2019,09,29,10,11,11.80
2019,09,29,10,12,11.80
2019,09,29,10,13,11.80
2019,09,29,10,14,11.80
2019,09,29,10,15,11.90
2019,09,29,10,16,11.90
2019,09,29,10,17,11.90
2019,09,29,10,18,11.90
2019,09,29,10,19,12.00
2019,09,29,10,20,12.00
2019,09,29,10,21,12.00
2019,09,29,10,22,12.10
2019,09,29,10,23,12.10
2019,09,29,10,24,12.10
2019,09,29,10,25,12.10
2019,09,29,10,26,12.10
2019,09,29,10,27,12.10
2019,09,29,10,28,12.20
2019,09,29,10,29,12.20
2019,09,29,10,30,12.20
2019,09,29,10,31,12.20
2019,09,29,10,32,12.20
2019,09,29,10,33,12.30
2019,09,29,10,34,12.30
2019,09,29,10,35,12.30
2019,09,29,10,36,12.30
2019,09,29,10,37,12.30
2019,09,29,10,38,12.30
2019,09,29,10,39,12.30
2019,09,29,10,40,12.30
2019,09,29,10,41,12.30
2019,09,29,10,42,12.40
2019,09,29,10,43,12.40
2019,09,29,10,44,12.50
2019,09,29,10,45,12.60
2019,09,29,10,46,12.60
2019,09,29,10,47,12.60
2019,09,29,10,48,12.60
2019,09,29,10,49,12.60
2019,09,29,10,50,12.60
2019,09,29,10,51,12.60
2019,09,29,10,52,12.70
2019,09,29,10,53,12.70
2019,09,29,10,54,12.70
2019,09,29,10,55,12.70
2019,09,29,10,56,12.70
2019,09,29,10,57,12.80
2019,09,29,10,58,12.80
2019,09,29,10,59,12.80
2019,09,29,11,00,12.80
2019,09,29,11,01,12.80
2019,09,29,11,02,12.80
2019,09,29,11,03,12.80
2019,09,29,11,04,12.80
2019,09,29,11,05,12.80
2019,09,29,11,06,12.80
2019,09,29,11,07,12.80
2019,09,29,11,08,12.90
2019,09,29,11,09,12.90
2019,09,29,11,10,12.90
2019,09,29,11,11,13.00
2019,09,29,11,12,13.10
2019,09,29,11,13,13.10
2019,09,29,11,14,13.10
2019,09,29,11,15,13.10
2019,09,29,11,16,13.20
2019,09,29,11,17,13.20
2019,09,29,11,18,13.20
2019,09,29,11,19,13.20
2019,09,29,11,20,13.30
2019,09,29,11,21,13.30
2019,09,29,11,22,13.30
2019,09,29,11,23,13.30
2019,09,29,11,24,13.30
2019,09,29,11,25,13.30
2019,09,29,11,26,13.30
2019,09,29,11,27,13.40
2019,09,29,11,28,13.40
2019,09,29,11,29,13.40
2019,09,29,11,30,13.40
2019,09,29,11,31,13.50
2019,09,29,11,32,13.50
2019,09,29,11,33,13.60
2019,09,29,11,34,13.60
2019,09,29,11,35,13.60
2019,09,29,11,36,13.60
2019,09,29,11,37,13.60
2019,09,29,11,38,13.70
2019,09,29,11,39,13.70
2019,09,29,11,40,13.80
2019,09,29,11,41,13.80
2019,09,29,11,42,13.80
2019,09,29,11,43,13.80
2019,09,29,11,44,13.80
2019,09,29,11,45,13.80
2019,09,29,11,46,13.80
2019,09,29,11,47,13.90
2019,09,29,11,48,13.90
2019,09,29,11,49,14.00
2019,09,29,11,50,14.10
2019,09,29,11,51,14.10
2019,09,29,11,52,14.20
2019,09,29,11,53,14.20
2019,09,29,11,54,14.10
2019,09,29,11,55,14.10
2019,09,29,11,56,14.10
2019,09,29,11,57,14.10
2019,09,29,11,58,14.10
2019,09,29,11,59,14.10
2019,09,29,12,00,14.10
2019,09,29,12,01,14.10
2019,09,29,12,02,14.10
2019,09,29,12,03,14.10
2019,09,29,12,04,14.10
2019,09,29,12,05,14.10
2019,09,29,12,06,14.10
2019,09,29,12,07,14.10
2019,09,29,12,08,14.20
2019,09,29,12,09,14.20
2019,09,29,12,10,14.30
2019,09,29,12,11,14.30
2019,09,29,12,12,14.40
2019,09,29,12,13,14.40
2019,09,29,12,14,14.50
2019,09,29,12,15,14.50
2019,09,29,12,16,14.60
2019,09,29,12,17,14.60
2019,09,29,12,18,14.70
2019,09,29,12,19,14.70
2019,09,29,12,20,14.70
2019,09,29,12,21,14.70
2019,09,29,12,22,14.70
2019,09,29,12,23,14.70
2019,09,29,12,24,14.70
2019,09,29,12,25,14.70
2019,09,29,12,26,14.70
2019,09,29,12,27,14.70
2019,09,29,12,28,14.70
2019,09,29,12,29,14.70
2019,09,29,12,30,14.70
2019,09,29,12,31,14.70
2019,09,29,12,32,14.70
2019,09,29,12,33,14.70
2019,09,29,12,34,14.60
2019,09,29,12,35,14.60
2019,09,29,12,36,14.50
2019,09,29,12,37,14.50
2019,09,29,12,38,14.40
2019,09,29,12,39,14.40
2019,09,29,12,40,14.40
2019,09,29,12,41,14.40
2019,09,29,12,42,14.40
2019,09,29,12,43,14.50
2019,09,29,12,44,14.50
2019,09,29,12,45,14.50
2019,09,29,12,46,14.60
2019,09,29,12,47,14.60
2019,09,29,12,48,14.70
2019,09,29,12,49,14.80
2019,09,29,12,50,14.80
2019,09,29,12,51,14.70
2019,09,29,12,52,14.70
2019,09,29,12,53,14.70
2019,09,29,12,54,14.70
2019,09,29,12,55,14.70
2019,09,29,12,56,14.70
2019,09,29,12,57,14.80
2019,09,29,12,58,14.80
2019,09,29,12,59,14.80
2019,09,29,13,00,14.80
2019,09,29,13,01,14.90
2019,09,29,13,02,14.90
2019,09,29,13,03,14.80
2019,09,29,13,04,14.80
2019,09,29,13,05,14.80
2019,09,29,13,06,14.80
2019,09,29,13,07,14.80
2019,09,29,13,08,14.80
2019,09,29,13,09,14.90
2019,09,29,13,10,14.90
2019,09,29,13,11,14.90
2019,09,29,13,12,14.90
2019,09,29,13,13,14.90
2019,09,29,13,14,14.90
2019,09,29,13,15,14.90
2019,09,29,13,16,14.90
2019,09,29,13,17,14.90
2019,09,29,13,18,14.90
2019,09,29,13,19,14.90
2019,09,29,13,20,14.90
2019,09,29,13,21,14.90
2019,09,29,13,22,14.90
2019,09,29,13,23,15.00
2019,09,29,13,24,15.00
2019,09,29,13,25,15.00
2019,09,29,13,26,15.10
2019,09,29,13,27,15.10
2019,09,29,13,28,15.10
2019,09,29,13,29,15.10
2019,09,29,13,30,15.10
2019,09,29,13,31,15.20
2019,09,29,13,32,15.10
2019,09,29,13,33,15.20
2019,09,29,13,34,15.20
2019,09,29,13,35,15.30
2019,09,29,13,36,15.30
2019,09,29,13,37,15.30
2019,09,29,13,38,15.40
2019,09,29,13,39,15.40
2019,09,29,13,40,15.40
2019,09,29,13,41,15.40
2019,09,29,13,42,15.40
2019,09,29,13,43,15.40
2019,09,29,13,44,15.40
2019,09,29,13,45,15.40
2019,09,29,13,46,15.40
2019,09,29,13,47,15.40
2019,09,29,13,48,15.40
2019,09,29,13,49,15.50
2019,09,29,13,50,15.60
2019,09,29,13,51,15.70
2019,09,29,13,52,15.80
2019,09,29,13,53,15.90
2019,09,29,13,54,15.90
2019,09,29,13,55,15.90
2019,09,29,13,56,15.80
2019,09,29,13,57,15.80
2019,09,29,13,58,15.90
2019,09,29,13,59,15.80
2019,09,29,14,00,15.80
2019,09,29,14,01,15.80
2019,09,29,14,02,15.80
2019,09,29,14,03,15.90
2019,09,29,14,04,15.90
2019,09,29,14,05,15.90
2019,09,29,14,06,15.80
2019,09,29,14,07,15.80
2019,09,29,14,08,15.80
2019,09,29,14,09,15.80
2019,09,29,14,10,15.80
2019,09,29,14,11,15.70
2019,09,29,14,12,15.70
2019,09,29,14,13,15.70
2019,09,29,14,14,15.70
2019,09,29,14,15,15.70
2019,09,29,14,16,15.70
2019,09,29,14,17,15.60
2019,09,29,14,18,15.60
2019,09,29,14,19,15.50
2019,09,29,14,20,15.50
2019,09,29,14,21,15.40
2019,09,29,14,22,15.40
2019,09,29,14,23,15.40
2019,09,29,14,24,15.40
2019,09,29,14,25,15.40
2019,09,29,14,26,15.40
2019,09,29,14,27,15.50
2019,09,29,14,28,15.50
2019,09,29,14,29,15.60
2019,09,29,14,30,15.60
2019,09,29,14,31,15.60
2019,09,29,14,32,15.70
2019,09,29,14,33,15.70
2019,09,29,14,34,15.70
2019,09,29,14,35,15.80
2019,09,29,14,36,15.80
2019,09,29,14,37,15.80
2019,09,29,14,38,15.80
2019,09,29,14,39,15.80
2019,09,29,14,40,15.80
2019,09,29,14,41,15.80
2019,09,29,14,42,15.80
2019,09,29,14,43,15.80
2019,09,29,14,44,15.80
2019,09,29,14,45,15.80
2019,09,29,14,46,15.90
2019,09,29,14,47,16.00
2019,09,29,14,48,16.20
2019,09,29,14,49,16.30
2019,09,29,14,50,16.30
2019,09,29,14,51,16.30
2019,09,29,14,52,16.30
2019,09,29,14,53,16.30
2019,09,29,14,54,16.30
2019,09,29,14,55,16.20
2019,09,29,14,56,16.20
2019,09,29,14,57,16.20
2019,09,29,14,58,16.20
2019,09,29,14,59,16.20
2019,09,29,15,00,16.20
2019,09,29,15,01,16.20
2019,09,29,15,02,16.20
2019,09,29,15,03,16.20
2019,09,29,15,04,16.20
2019,09,29,15,05,16.10
2019,09,29,15,06,16.10
2019,09,29,15,07,16.10
2019,09,29,15,08,16.10
2019,09,29,15,09,16.10
2019,09,29,15,10,16.10
2019,09,29,15,11,16.10
2019,09,29,15,12,16.20
2019,09,29,15,13,16.20
2019,09,29,15,14,16.20
2019,09,29,15,15,16.20
2019,09,29,15,16,16.20
2019,09,29,15,17,16.20
2019,09,29,15,18,16.20
2019,09,29,15,19,16.30
2019,09,29,15,20,16.30
2019,09,29,15,21,16.30
2019,09,29,15,22,16.30
2019,09,29,15,23,16.30
2019,09,29,15,24,16.30
2019,09,29,15,25,16.40
2019,09,29,15,26,16.40
2019,09,29,15,27,16.40
2019,09,29,15,28,16.30
2019,09,29,15,29,16.30
2019,09,29,15,30,16.30
2019,09,29,15,31,16.30
2019,09,29,15,32,16.30
2019,09,29,15,33,16.30
2019,09,29,15,34,16.30
2019,09,29,15,35,16.30
2019,09,29,15,36,16.30
2019,09,29,15,37,16.40
2019,09,29,15,38,16.50
2019,09,29,15,39,16.50
2019,09,29,15,40,16.60
2019,09,29,15,41,16.60
2019,09,29,15,42,16.60
2019,09,29,15,43,16.60
2019,09,29,15,44,16.50
2019,09,29,15,45,16.50
2019,09,29,15,46,16.40
2019,09,29,15,47,16.40
2019,09,29,15,48,16.40
2019,09,29,15,49,16.40
2019,09,29,15,50,16.40
2019,09,29,15,51,16.40
2019,09,29,15,52,16.40
2019,09,29,15,53,16.40
2019,09,29,15,54,16.40
2019,09,29,15,55,16.40
2019,09,29,15,56,16.40
2019,09,29,15,57,16.40
2019,09,29,15,58,16.50
2019,09,29,15,59,16.50
2019,09,29,16,00,16.60
2019,09,29,16,01,16.60
2019,09,29,16,02,16.60
2019,09,29,16,03,16.80
2019,09,29,16,04,16.90
2019,09,29,16,05,17.00
2019,09,29,16,06,17.00
2019,09,29,16,07,17.00
2019,09,29,16,08,17.10
2019,09,29,16,09,17.10
2019,09,29,16,10,17.10
2019,09,29,16,11,17.20
2019,09,29,16,12,17.30
2019,09,29,16,13,17.30
2019,09,29,16,14,17.40
2019,09,29,16,15,17.50
2019,09,29,16,16,17.50
2019,09,29,16,17,17.50
2019,09,29,16,18,17.60
2019,09,29,16,19,17.60
2019,09,29,16,20,17.60
2019,09,29,16,21,17.60
2019,09,29,16,22,17.60
2019,09,29,16,23,17.60
2019,09,29,16,24,17.60
2019,09,29,16,25,17.60
2019,09,29,16,26,17.60
2019,09,29,16,27,17.60
2019,09,29,16,28,17.60
2019,09,29,16,29,17.50
2019,09,29,16,30,17.30
2019,09,29,16,31,17.10
2019,09,29,16,32,17.00
2019,09,29,16,33,16.80
2019,09,29,16,34,16.70
2019,09,29,16,35,16.60
2019,09,29,16,36,16.50
2019,09,29,16,37,16.50
2019,09,29,16,38,16.50
2019,09,29,16,39,16.60
2019,09,29,16,40,16.60
2019,09,29,16,41,16.60
2019,09,29,16,42,16.60
2019,09,29,16,43,16.70
2019,09,29,16,44,16.70
2019,09,29,16,45,16.70
2019,09,29,16,46,16.70
2019,09,29,16,47,16.70
2019,09,29,16,48,16.70
2019,09,29,16,49,16.70
2019,09,29,16,50,16.70
2019,09,29,16,51,16.70
2019,09,29,16,52,16.90
2019,09,29,16,53,16.90
2019,09,29,16,54,16.90
2019,09,29,16,55,17.00
2019,09,29,16,56,17.00
2019,09,29,16,57,17.10
2019,09,29,16,58,17.10
2019,09,29,16,59,17.20
2019,09,29,17,00,17.20
2019,09,29,17,01,17.30
2019,09,29,17,02,17.30
2019,09,29,17,03,17.20
2019,09,29,17,04,17.30
2019,09,29,17,05,17.30
2019,09,29,17,06,17.30
2019,09,29,17,07,17.30
2019,09,29,17,08,17.40
2019,09,29,17,09,17.40
2019,09,29,17,10,17.50
2019,09,29,17,11,17.50
2019,09,29,17,12,17.60
2019,09,29,17,13,17.70
2019,09,29,17,14,17.70
2019,09,29,17,15,17.70
2019,09,29,17,16,17.70
2019,09,29,17,17,17.80
2019,09,29,17,18,17.80
2019,09,29,17,19,17.80
2019,09,29,17,20,17.80
2019,09,29,17,21,17.80
2019,09,29,17,22,17.80
2019,09,29,17,23,17.80
2019,09,29,17,24,17.60
2019,09,29,17,25,17.50
2019,09,29,17,26,17.40
2019,09,29,17,27,17.30
2019,09,29,17,28,17.20
2019,09,29,17,29,17.00
2019,09,29,17,30,16.90
2019,09,29,17,31,16.80
2019,09,29,17,32,16.60
2019,09,29,17,33,16.50
2019,09,29,17,34,16.30
2019,09,29,17,35,16.30
2019,09,29,17,36,16.20
2019,09,29,17,37,16.10
2019,09,29,17,38,16.10
2019,09,29,17,39,16.00
2019,09,29,17,40,16.00
2019,09,29,17,41,16.00
2019,09,29,17,42,15.90
2019,09,29,17,43,15.90
2019,09,29,17,44,15.90
2019,09,29,17,45,15.90
2019,09,29,17,46,15.80
2019,09,29,17,47,15.80
2019,09,29,17,48,15.80
2019,09,29,17,49,15.80
2019,09,29,17,50,15.80
2019,09,29,17,51,15.80
2019,09,29,17,52,15.70
2019,09,29,17,53,15.70
2019,09,29,17,54,15.70
2019,09,29,17,55,15.70
2019,09,29,17,56,15.70
2019,09,29,17,57,15.70
2019,09,29,17,58,15.60
2019,09,29,17,59,15.60
2019,09,29,18,00,15.60
2019,09,29,18,01,15.60
2019,09,29,18,02,15.60
2019,09,29,18,03,15.60
2019,09,29,18,04,15.60
2019,09,29,18,05,15.60
2019,09,29,18,06,15.60
2019,09,29,18,07,15.60
2019,09,29,18,08,15.60
2019,09,29,18,09,15.60
2019,09,29,18,10,15.60
2019,09,29,18,11,15.60
2019,09,29,18,12,15.60
2019,09,29,18,13,15.60
2019,09,29,18,14,15.60
2019,09,29,18,15,15.60
2019,09,29,18,16,15.50
2019,09,29,18,17,15.50
2019,09,29,18,18,15.50
2019,09,29,18,19,15.40
2019,09,29,18,20,15.40
2019,09,29,18,21,15.40
2019,09,29,18,22,15.30
2019,09,29,18,23,15.20
2019,09,29,18,24,15.20
2019,09,29,18,25,15.20
2019,09,29,18,26,15.10
2019,09,29,18,27,15.10
2019,09,29,18,28,15.10
2019,09,29,18,29,15.00
2019,09,29,18,30,15.00
2019,09,29,18,31,14.90